Погода в Посаде

Россия / Пермский край     57°25′16″N   57°15′35″E
темп.,
°C
ветер,
м/с
пор.,
м/с
влажн.,
%
обл.,
%
осадки,
мм/ч
давл.,
гПа
погр.,
м
25 января, пн
пн2523:00−9юз2396100 1.1 102591
02:00−9юз129699 0.2 102421
05:00−6ю119699 0.2 102646
08:00−5юв1297100 0.2 102522
11:00+1юз511100100 1.1 1026296
14:00+1юз611100100 0.1 1026333
17:000юз71297100 0.2 1027473
20:00−2юз61296100 0.7 1028535
26 января, вт
вт2623:00−3юз61393100 0.9 1028519
02:00−3юз6129596 0.4 1028574
05:00−3юз5119197 0.7 1029614
08:00−4юз51091100 0.0 1029596
11:00−6юз41192100 0.1 1029520
14:00−3юз51092100 0.1 1028755
17:00−2юз51191100 0.1 1027666
20:00−3юз51193100 0.1 1027588
27 января, ср
ср2723:00−4юз5993100 0.1 1027543
02:00−4юз41093100 0.1 1027513
05:00−6юз51093100 0.1 1027499
08:00−7ююз51093100 0.1 1027510
11:00−7юз61192100 0.1 1027610
14:00−6юз61192100 0.1 1027627
17:00−5ююз51392100 0.1 1027561
20:00−6ююз51393100 0.0 1026482
28 января, чт
чт2823:00−5ююз61391100 0.1 1025538
02:00−6ююз41293100 0.0 1025409
05:00−6ююз51393100 0.0 1024443
08:00−8ююз5139198 0.0 1024391
11:00−7ююз5159099 0.0 1023444
14:00−4ююз71387100 0.0 1023546
17:00−3ююз51287100 0.0 1022525
20:00−5ююз51389100 0.0 1022418
29 января, пт
пт2923:00−6ююз41289100 0.0 1022377
02:00−7ююз41189100 0.0 1022311
05:00−8ююз4990100 0.0 1022226
08:00−10ю339097 0.0 102138
11:00−9ююв228998 0.0 102152
14:00−5юв2587100 0.0 1020211
17:00−5юв3487100 0.0 101973
20:00−4вюв4884100 0.0 1019184